Flag for San Marino Weather past 2 weeks in San Marino, San Marino

Now
37 °F

Passing clouds.


Feels Like: 29 °F
Forecast: 24 / 31 °F
Wind: 14 mph from West

Location: Rimini Airport

Current Time: Dec 28, 2014 at 3:33:56 AM

Latest Report: Dec 28, 2014 at 2:45 AM


Visibility: N/A

Pressure: 29.47 "Hg

Humidity: 93%

Dew point: 36 °F

Location of San MarinoLocation

Historic Weather in San Marino — Graph

°F

San Marino temperature yesterday

Maximum temperature yesterday: 48 °F (at 5:15 PM)
Minimum temperature yesterday: 36 °F (at 7:45 AM)
Average temperature yesterday: 41 °F

Past Weeks' High & Low Weather Summary

 TemperatureHumidityPressure
High63 °F (Dec 13, 1:45 PM)100% (Dec 13, 7:15 PM)30.48 "Hg (Dec 13, 7:15 PM)
Low34 °F (Dec 25, 7:45 PM)46% (Dec 27, 2:45 PM)29.47 "Hg (Dec 27, 11:45 PM)
Average46 °F95%30.15 "Hg
* Reported Dec 13 2:15 AM — Dec 28 2:15 AM, San Marino, Weather by CustomWeather, © 2014

Note: Actual official high and low records may vary slightly from our data, if they occured in-between our weather recording intervals... More about our weather records

Advertising

San Marino weather history for previous 24 hours

 ConditionsComfort  
Time TempWeatherWind HumidityBarometerVisibility
2:15 AM
Dec 28
37 °FPassing clouds.14 mph93%29.47 "HgN/A
1:45 AM37 °FPassing clouds.14 mph93%29.47 "HgN/A
1:15 AM37 °FPassing clouds.18 mph87%29.47 "HgN/A
12:15 AM37 °FPassing clouds.21 mph87%29.47 "HgN/A
11:45 PM
Dec 27
37 °FPassing clouds.16 mph93%29.47 "HgN/A
11:15 PM37 °FPassing clouds.17 mph100%29.50 "HgN/A
10:45 PM37 °FPassing clouds.17 mph100%29.50 "HgN/A
10:15 PM37 °FPassing clouds.17 mph100%29.50 "HgN/A
9:45 PM37 °FLight rain. Passing clouds.16 mph100%29.50 "HgN/A
9:15 PM37 °FLight rain. Passing clouds.13 mph100%29.50 "HgN/A
8:45 PM41 °FLight rain. Passing clouds.15 mph100%29.50 "HgN/A
8:15 PM43 °FLight rain. Passing clouds.18 mph93%29.50 "HgN/A
7:45 PM43 °FLight rain. Passing clouds.7 mph100%29.50 "HgN/A
7:15 PM43 °FLight rain. Passing clouds.6 mph93%29.53 "HgN/A
6:45 PM43 °FLight rain. Passing clouds.5 mph93%29.53 "HgN/A
6:15 PM45 °FLight rain. Passing clouds.2 mph87%29.53 "HgN/A
5:45 PM45 °FLight rain. Passing clouds.12 mph81%29.53 "HgN/A
5:15 PM48 °FLight rain. Passing clouds.18 mph62%29.56 "HgN/A
4:45 PM46 °FPassing clouds.16 mph50%29.59 "HgN/A
4:15 PM46 °FScattered clouds.8 mph46%29.62 "HgN/A
3:45 PM46 °FScattered clouds.8 mph46%29.65 "HgN/A
3:15 PM46 °FScattered clouds.10 mph46%29.68 "HgN/A
2:45 PM46 °FScattered clouds.10 mph46%29.71 "HgN/A
2:15 PM46 °FScattered clouds.7 mph50%29.74 "HgN/A
1:45 PM46 °FScattered clouds.9 mph53%29.77 "HgN/A
1:15 PM45 °FScattered clouds.10 mph57%29.80 "HgN/A
12:45 PM45 °FScattered clouds.10 mph57%29.83 "HgN/A
12:15 PM46 °FScattered clouds.9 mph53%29.89 "HgN/A
11:45 AM46 °FScattered clouds.10 mph57%29.89 "HgN/A
11:15 AM45 °FPassing clouds.9 mph57%29.92 "HgN/A
10:45 AM45 °FSunny.10 mph57%29.95 "Hg10 mi
10:15 AM43 °FSunny.13 mph66%29.98 "Hg10 mi
9:15 AM39 °FSunny.6 mph81%30.01 "Hg10 mi
8:45 AM37 °FSunny.5 mph81%30.01 "Hg10 mi
8:15 AM37 °FSunny.5 mph87%30.04 "Hg10 mi
7:45 AM36 °FSunny.6 mph87%30.07 "Hg10 mi
7:15 AM37 °FClear.5 mph87%30.07 "Hg10 mi
6:45 AM37 °FClear.5 mph87%30.09 "Hg10 mi
6:15 AM37 °FClear.6 mph87%30.09 "Hg10 mi
5:45 AM37 °FClear.6 mph87%30.12 "Hg10 mi
5:15 AM37 °FClear.5 mph87%30.12 "Hg10 mi
4:15 AM39 °FClear.5 mph87%30.15 "Hg10 mi
3:45 AM39 °FClear.5 mph93%30.15 "Hg10 mi
3:15 AM39 °FClear.5 mph93%30.15 "Hg10 mi
Weather by CustomWeather, © 2014

See weather overviewHow to use our weather pages